SGM YPPH-YCAR

Flight info

Callsign SGM
Flight time 1h 3m
Altitude 40000
Route PH7/21 HAIGH DCT CA2SF DCT CA2NH
Aircraft GLF6/M-SFGHIRWXY/S

Departure

Time 2026-05-05 12:25
Airport Perth International Airport (YPPH)

Arrival

Time 2026-05-05 13:28
Airport Carnarvon Airport (YCAR)
Time Latitude Longitude Altitude Speed Heading
2026-05-05 12:25 -31.82723 115.99966 14041 ft 375 kts 12°
2026-05-05 12:25 -31.80200 116.00307 15087 ft 381 kts 357°
2026-05-05 12:25 -31.77810 115.99716 16958 ft 356 kts 345°
2026-05-05 12:26 -31.75557 115.98971 18638 ft 341 kts 343°
2026-05-05 12:26 -31.73332 115.98175 19849 ft 341 kts 342°
2026-05-05 12:26 -31.71132 115.97381 21008 ft 343 kts 342°
2026-05-05 12:26 -31.68875 115.96566 22103 ft 346 kts 342°
2026-05-05 12:27 -31.66675 115.95772 23139 ft 349 kts 342°
2026-05-05 12:27 -31.64361 115.94937 24151 ft 354 kts 342°
2026-05-05 12:27 -31.62120 115.94129 25104 ft 359 kts 341°
2026-05-05 12:27 -31.59758 115.93278 26070 ft 365 kts 341°
2026-05-05 12:28 -31.57372 115.92418 26984 ft 370 kts 341°
2026-05-05 12:28 -31.54915 115.91534 27896 ft 375 kts 341°
2026-05-05 12:28 -31.52446 115.90646 28766 ft 380 kts 341°
2026-05-05 12:28 -31.50061 115.89788 29597 ft 385 kts 341°
2026-05-05 12:29 -31.47428 115.88842 30407 ft 390 kts 340°
2026-05-05 12:29 -31.44883 115.87929 31148 ft 395 kts 340°
2026-05-05 12:29 -31.42258 115.86987 31839 ft 399 kts 340°
2026-05-05 12:29 -31.39591 115.86031 32499 ft 404 kts 340°
2026-05-05 12:30 -31.36863 115.85053 33126 ft 408 kts 340°
2026-05-05 12:30 -31.34146 115.84079 33711 ft 413 kts 340°
2026-05-05 12:30 -31.31375 115.83088 34367 ft 416 kts 339°
2026-05-05 12:30 -31.28708 115.82133 35004 ft 419 kts 339°
2026-05-05 12:31 -31.25905 115.81131 35680 ft 422 kts 339°
2026-05-05 12:31 -31.23076 115.80119 36236 ft 426 kts 339°
2026-05-05 12:31 -31.20366 115.79150 36749 ft 431 kts 339°
2026-05-05 12:31 -31.17403 115.78093 37290 ft 435 kts 339°
2026-05-05 12:32 -31.14565 115.77080 37734 ft 439 kts 339°
2026-05-05 12:32 -31.11621 115.76031 38259 ft 442 kts 338°
2026-05-05 12:32 -31.08689 115.74985 38664 ft 447 kts 338°
2026-05-05 12:32 -31.05703 115.73922 39122 ft 450 kts 338°
2026-05-05 12:33 -31.02708 115.72857 39587 ft 452 kts 338°
2026-05-05 12:33 -30.99698 115.71786 40136 ft 452 kts 338°
2026-05-05 12:33 -30.96713 115.70725 40305 ft 458 kts 338°
2026-05-05 12:33 -30.93683 115.69647 40324 ft 467 kts 338°
2026-05-05 12:34 -30.87413 115.67422 40325 ft 484 kts 338°
2026-05-05 12:34 -30.80798 115.65078 40319 ft 502 kts 338°
2026-05-05 12:35 -30.74015 115.62678 40317 ft 520 kts 339°
2026-05-05 12:35 -30.67058 115.60223 40314 ft 520 kts 339°
2026-05-05 12:36 -30.60171 115.57794 40310 ft 516 kts 339°
2026-05-05 12:36 -30.53307 115.55376 40307 ft 514 kts 339°
2026-05-05 12:37 -30.46472 115.52972 40307 ft 513 kts 339°
2026-05-05 12:37 -30.39660 115.50581 40306 ft 514 kts 339°
2026-05-05 12:38 -30.32777 115.48167 40302 ft 515 kts 339°
2026-05-05 12:38 -30.26044 115.45809 40301 ft 515 kts 339°
2026-05-05 12:39 -30.19174 115.43408 40297 ft 515 kts 339°
2026-05-05 12:39 -30.12722 115.40162 40311 ft 503 kts 317°
2026-05-05 12:40 -30.08009 115.34346 40294 ft 501 kts 312°
2026-05-05 12:40 -30.05226 115.31918 40322 ft 507 kts 329°
2026-05-05 12:40 -30.02002 115.30282 40319 ft 513 kts 336°
2026-05-05 12:41 -29.95267 115.27519 40307 ft 514 kts 338°
2026-05-05 12:41 -29.88524 115.24893 40296 ft 515 kts 338°
2026-05-05 12:42 -29.81820 115.22299 40295 ft 515 kts 339°
2026-05-05 12:42 -29.75088 115.19698 40283 ft 517 kts 339°
2026-05-05 12:43 -29.68294 115.17078 40285 ft 517 kts 339°
2026-05-05 12:43 -29.61511 115.14464 40271 ft 518 kts 339°
2026-05-05 12:44 -29.54660 115.11828 40268 ft 519 kts 339°
2026-05-05 12:44 -29.47792 115.09190 40259 ft 520 kts 339°
2026-05-05 12:45 -29.41029 115.06595 40255 ft 520 kts 339°
2026-05-05 12:45 -29.34157 115.03963 40255 ft 520 kts 339°
2026-05-05 12:46 -29.27284 115.01334 40249 ft 521 kts 339°
2026-05-05 12:46 -29.20422 114.98714 40257 ft 522 kts 339°
2026-05-05 12:47 -29.13534 114.96086 40260 ft 524 kts 340°
2026-05-05 12:47 -29.06619 114.93453 40263 ft 524 kts 340°
2026-05-05 12:48 -28.99726 114.90831 40262 ft 524 kts 340°
2026-05-05 12:48 -28.93011 114.88281 40255 ft 524 kts 340°
2026-05-05 12:49 -28.86076 114.85650 40256 ft 522 kts 339°
2026-05-05 12:49 -28.79220 114.83054 40252 ft 522 kts 340°
2026-05-05 12:50 -28.72396 114.80473 40252 ft 521 kts 339°
2026-05-05 12:50 -28.65634 114.77918 40235 ft 522 kts 339°
2026-05-05 12:51 -28.58801 114.75341 40240 ft 523 kts 339°
2026-05-05 12:51 -28.52537 114.72981 40231 ft 522 kts 339°
2026-05-05 12:52 -28.45232 114.70233 40231 ft 520 kts 339°
2026-05-05 12:52 -28.38324 114.67638 40232 ft 519 kts 339°
2026-05-05 12:53 -28.31522 114.65086 40231 ft 518 kts 339°
2026-05-05 12:53 -28.24670 114.62520 40231 ft 517 kts 339°
2026-05-05 12:54 -28.14537 114.58730 40223 ft 517 kts 339°
2026-05-05 12:55 -28.07788 114.56210 40220 ft 516 kts 339°
2026-05-05 12:55 -28.00947 114.53659 40193 ft 514 kts 338°
2026-05-05 12:56 -27.94327 114.51194 40210 ft 514 kts 338°
2026-05-05 12:56 -27.87509 114.48658 40209 ft 513 kts 338°
2026-05-05 12:57 -27.80709 114.46132 40192 ft 513 kts 338°
2026-05-05 12:57 -27.74556 114.43850 40214 ft 515 kts 338°
2026-05-05 12:58 -27.67347 114.41180 40193 ft 514 kts 338°
2026-05-05 12:58 -27.60638 114.38696 40183 ft 516 kts 338°
2026-05-05 12:59 -27.53791 114.36167 40175 ft 514 kts 337°
2026-05-05 12:59 -27.47402 114.33809 40200 ft 515 kts 337°
2026-05-05 13:00 -27.37027 114.29987 40194 ft 514 kts 337°
2026-05-05 13:01 -27.23623 114.25059 40148 ft 513 kts 337°
2026-05-05 13:01 -27.16757 114.22539 39557 ft 517 kts 337°
2026-05-05 13:02 -27.13350 114.21291 38977 ft 516 kts 337°
2026-05-05 13:02 -27.09939 114.20040 38400 ft 514 kts 337°
2026-05-05 13:02 -27.06566 114.18805 37814 ft 515 kts 338°
2026-05-05 13:02 -27.03185 114.17567 37257 ft 515 kts 338°
2026-05-05 13:03 -26.99779 114.16322 36683 ft 518 kts 338°
2026-05-05 13:03 -26.96309 114.15054 36081 ft 521 kts 339°
2026-05-05 13:03 -26.92895 114.13808 35778 ft 523 kts 339°
2026-05-05 13:03 -26.89415 114.12537 35014 ft 526 kts 339°
2026-05-05 13:04 -26.85912 114.11259 34400 ft 527 kts 340°
2026-05-05 13:04 -26.82440 114.09994 33810 ft 529 kts 341°
2026-05-05 13:04 -26.79033 114.08756 33220 ft 517 kts 340°
2026-05-05 13:04 -26.76175 114.07719 32725 ft 507 kts 340°
2026-05-05 13:05 -26.72691 114.06451 32147 ft 495 kts 340°
2026-05-05 13:05 -26.69495 114.05289 31613 ft 484 kts 340°
2026-05-05 13:05 -26.66353 114.04147 31079 ft 474 kts 339°
2026-05-05 13:05 -26.63304 114.03038 30571 ft 465 kts 339°
2026-05-05 13:06 -26.60510 114.02025 30099 ft 461 kts 340°
2026-05-05 13:06 -26.57442 114.00912 29590 ft 457 kts 340°
2026-05-05 13:06 -26.54857 113.99974 29153 ft 455 kts 340°
2026-05-05 13:06 -26.51487 113.98753 28587 ft 451 kts 340°
2026-05-05 13:07 -26.48491 113.97668 28078 ft 448 kts 339°
2026-05-05 13:07 -26.45537 113.96598 27587 ft 446 kts 340°
2026-05-05 13:07 -26.42804 113.95610 27119 ft 442 kts 340°
2026-05-05 13:07 -26.39790 113.94521 26614 ft 438 kts 340°
2026-05-05 13:08 -26.36905 113.93479 26120 ft 435 kts 340°
2026-05-05 13:08 -26.34054 113.92448 25642 ft 431 kts 340°
2026-05-05 13:08 -26.31210 113.91423 25158 ft 428 kts 340°
2026-05-05 13:08 -26.28378 113.90401 24688 ft 426 kts 340°
2026-05-05 13:09 -26.25599 113.89399 24206 ft 422 kts 340°
2026-05-05 13:09 -26.22819 113.88397 23740 ft 418 kts 339°
2026-05-05 13:09 -26.20060 113.87403 23282 ft 414 kts 339°
2026-05-05 13:09 -26.17331 113.86419 22822 ft 411 kts 340°
2026-05-05 13:10 -26.14599 113.85435 22359 ft 410 kts 339°
2026-05-05 13:10 -26.11920 113.84472 21863 ft 407 kts 339°
2026-05-05 13:10 -26.09228 113.83503 21343 ft 405 kts 340°
2026-05-05 13:10 -26.06568 113.82548 20888 ft 402 kts 340°
2026-05-05 13:11 -26.03887 113.81585 20430 ft 399 kts 340°
2026-05-05 13:11 -26.01263 113.80643 19987 ft 397 kts 340°
2026-05-05 13:11 -25.98633 113.79697 19542 ft 396 kts 340°
2026-05-05 13:11 -25.96022 113.78762 19097 ft 394 kts 340°
2026-05-05 13:12 -25.93450 113.77840 18672 ft 391 kts 340°
2026-05-05 13:12 -25.90868 113.76914 18239 ft 389 kts 340°
2026-05-05 13:12 -25.88281 113.75988 17799 ft 387 kts 340°
2026-05-05 13:12 -25.85728 113.75073 17374 ft 386 kts 340°
2026-05-05 13:13 -25.83172 113.74159 16944 ft 383 kts 340°
2026-05-05 13:13 -25.80663 113.73261 16515 ft 381 kts 340°
2026-05-05 13:13 -25.78145 113.72361 16102 ft 379 kts 341°
2026-05-05 13:13 -25.75633 113.71464 15680 ft 376 kts 341°
2026-05-05 13:14 -25.73134 113.70570 15256 ft 375 kts 341°
2026-05-05 13:14 -25.70673 113.69692 14841 ft 373 kts 341°
2026-05-05 13:14 -25.68212 113.68814 14428 ft 370 kts 341°
2026-05-05 13:14 -25.65736 113.67930 14014 ft 369 kts 341°
2026-05-05 13:15 -25.63309 113.67065 13600 ft 367 kts 341°
2026-05-05 13:15 -25.60889 113.66202 13204 ft 366 kts 341°
2026-05-05 13:15 -25.58457 113.65335 12793 ft 364 kts 341°
2026-05-05 13:15 -25.56062 113.64483 12391 ft 363 kts 341°
2026-05-05 13:16 -25.53644 113.63622 11976 ft 361 kts 341°
2026-05-05 13:16 -25.51278 113.62780 11581 ft 359 kts 341°
2026-05-05 13:16 -25.48894 113.61932 11184 ft 357 kts 341°
2026-05-05 13:16 -25.46532 113.61092 10782 ft 353 kts 341°
2026-05-05 13:17 -25.44231 113.60274 10389 ft 345 kts 341°
2026-05-05 13:17 -25.41961 113.59467 10005 ft 337 kts 341°
2026-05-05 13:17 -25.39741 113.58680 9632 ft 330 kts 341°
2026-05-05 13:17 -25.37575 113.57911 9270 ft 324 kts 341°
2026-05-05 13:18 -25.35445 113.57154 8909 ft 318 kts 341°
2026-05-05 13:18 -25.33354 113.56413 8557 ft 312 kts 341°
2026-05-05 13:18 -25.31298 113.55682 8212 ft 307 kts 341°
2026-05-05 13:18 -25.29295 113.54973 7871 ft 302 kts 342°
2026-05-05 13:19 -25.27308 113.54268 7544 ft 298 kts 342°
2026-05-05 13:19 -25.25329 113.53567 7211 ft 293 kts 342°
2026-05-05 13:19 -25.23394 113.52882 6883 ft 289 kts 342°
2026-05-05 13:19 -25.21499 113.52211 6561 ft 286 kts 342°
2026-05-05 13:20 -25.19618 113.51546 6248 ft 283 kts 342°
2026-05-05 13:20 -25.17756 113.50887 5941 ft 280 kts 343°
2026-05-05 13:20 -25.15898 113.50229 5624 ft 277 kts 343°
2026-05-05 13:20 -25.14070 113.49582 5313 ft 274 kts 343°
2026-05-05 13:21 -25.12268 113.48946 5011 ft 271 kts 343°
2026-05-05 13:21 -25.10490 113.48318 4716 ft 268 kts 344°
2026-05-05 13:21 -25.08712 113.47720 4340 ft 257 kts 354°
2026-05-05 13:21 -25.07077 113.47976 4101 ft 229 kts 31°
2026-05-05 13:22 -25.05826 113.48964 3916 ft 209 kts 40°
2026-05-05 13:22 -25.04780 113.49921 3608 ft 180 kts 41°
2026-05-05 13:22 -25.03890 113.50769 3393 ft 162 kts 42°
2026-05-05 13:22 -25.03067 113.51575 3196 ft 155 kts 43°
2026-05-05 13:23 -25.02277 113.52362 3017 ft 151 kts 43°
2026-05-05 13:23 -25.01499 113.53146 2844 ft 150 kts 44°
2026-05-05 13:23 -25.00736 113.53921 2672 ft 149 kts 44°
2026-05-05 13:23 -24.99968 113.54707 2500 ft 150 kts 44°
2026-05-05 13:24 -24.99208 113.55487 2332 ft 149 kts 44°
2026-05-05 13:24 -24.98458 113.56260 2157 ft 148 kts 45°
2026-05-05 13:24 -24.97714 113.57027 1990 ft 145 kts 45°
2026-05-05 13:24 -24.96970 113.57796 1818 ft 144 kts 44°
2026-05-05 13:25 -24.96247 113.58542 1693 ft 135 kts 45°
2026-05-05 13:25 -24.95567 113.59244 1687 ft 123 kts 45°
2026-05-05 13:25 -24.94979 113.59852 1666 ft 111 kts 45°
2026-05-05 13:25 -24.94433 113.60419 1521 ft 115 kts 45°
2026-05-05 13:26 -24.93841 113.61060 1312 ft 121 kts 46°
2026-05-05 13:26 -24.93230 113.61696 1171 ft 121 kts 44°
2026-05-05 13:26 -24.92599 113.62304 1033 ft 119 kts 42°
2026-05-05 13:26 -24.91957 113.62868 956 ft 115 kts 41°
2026-05-05 13:27 -24.91285 113.63471 705 ft 129 kts 46°
2026-05-05 13:27 -24.90673 113.64182 566 ft 128 kts 51°
2026-05-05 13:27 -24.90062 113.64896 393 ft 127 kts 45°
2026-05-05 13:27 -24.89419 113.65578 224 ft 132 kts 47°
2026-05-05 13:28 -24.88764 113.66283 65 ft 130 kts 46°
2026-05-05 13:28 -24.88182 113.66899 29 ft 90 kts 44°
2026-05-05 13:28 -24.87886 113.67207 26 ft 29 kts 43°
2026-05-05 13:28 -24.87794 113.67302 26 ft 11 kts 33°
2026-05-05 13:29 -24.87777 113.67341 26 ft 3 kts 178°
2026-05-05 13:29 -24.87784 113.67336 26 ft 1 kts 234°
2026-05-05 13:29 -24.87794 113.67305 26 ft 5 kts 237°
2026-05-05 13:29 -24.87825 113.67270 26 ft 8 kts 224°
2026-05-05 13:30 -24.87884 113.67208 26 ft 14 kts 223°
2026-05-05 13:30 -24.87971 113.67118 26 ft 19 kts 223°
2026-05-05 13:30 -24.88079 113.67005 27 ft 21 kts 224°
2026-05-05 13:30 -24.88184 113.66898 29 ft 19 kts 223°
2026-05-05 13:31 -24.88285 113.66795 26 ft 20 kts 223°
2026-05-05 13:31 -24.88383 113.66689 26 ft 19 kts 223°
2026-05-05 13:31 -24.88470 113.66599 26 ft 12 kts 227°
2026-05-05 13:31 -24.88473 113.66533 26 ft 8 kts 308°
2026-05-05 13:32 -24.88435 113.66489 26 ft 7 kts 313°
2026-05-05 13:32 -24.88403 113.66451 26 ft 6 kts 313°
2026-05-05 13:32 -24.88380 113.66435 26 ft 0 kts 306°
2026-05-05 13:32 -24.88380 113.66432 26 ft 0 kts 283°
2026-05-05 13:33 -24.88381 113.66424 26 ft 1 kts 264°
2026-05-05 13:33 -24.88382 113.66412 26 ft 1 kts 265°